CW1923 Weather Reports


Display with metric or nautical units.
time (UTC)temp
F
wind
direction
speed
MPH
gust
MPH
rain 1hr
in
rain 24hr
in
rain mn
in
humidity
%
barometer
mb
20260502182324 74 290 0.0 0.0 0.00 0.00 0.00 61 1013.3
20260502181823 75 290 0.0 0.0 0.00 0.00 0.00 60 1013.3
20260502180311 75 290 0.0 0.0 0.00 0.00 0.00 56 1013.2
20260502170305 78 254 2.0 5.0 0.00 0.00 0.00 52 1013.3
20260502164254 77 193 4.0 9.0 0.00 0.00 0.00 53 1013.8
20260502163753 77 201 2.0 7.0 0.00 0.00 0.00 54 1013.9
20260502162746 77 187 2.0 9.0 0.00 0.00 0.00 54 1014.0
20260502162247 77 193 2.0 7.0 0.00 0.00 0.00 53 1014.0
20260502161747 77 193 2.0 9.0 0.00 0.00 0.00 53 1014.1
20260502160745 77 161 2.0 7.0 0.00 0.00 0.00 53 1014.2
20260502160242 77 160 4.0 11.0 0.00 0.00 0.00 52 1014.3
20260502152234 77 166 4.0 14.0 0.00 0.00 0.00 54 1014.6
20260502151732 77 311 4.0 14.0 0.00 0.00 0.00 55 1014.7
20260502151230 76 342 4.0 14.0 0.00 0.00 0.00 55 1014.8
20260502150231 77 180 4.0 9.0 0.00 0.00 0.00 54 1015.0
20260502130706 77 214 2.0 9.0 0.00 0.00 0.00 57 1016.6
20260502130202 76 257 4.0 11.0 0.00 0.00 0.00 58 1016.6
20260502123656 75 290 4.0 11.0 0.00 0.00 0.00 60 1016.9
20260502123157 75 145 4.0 11.0 0.00 0.00 0.00 59 1017.1
20260502122655 74 311 4.0 12.0 0.00 0.00 0.00 62 1017.1
20260502122153 74 276 4.0 12.0 0.00 0.00 0.00 61 1017.3
20260502121653 74 305 4.0 7.0 0.00 0.00 0.00 61 1017.3
20260502121151 74 171 2.0 7.0 0.00 0.00 0.00 61 1017.4
20260502120655 74 35 2.0 7.0 0.00 0.00 0.00 63 1017.4
20260502120149 74 308 2.0 11.0 0.00 0.00 0.00 63 1017.5
20260502115645 73 309 4.0 11.0 0.00 0.00 0.00 63 1017.7
20260502115146 74 303 4.0 12.0 0.00 0.00 0.00 62 1017.7
20260502114645 74 187 4.0 12.0 0.00 0.00 0.00 61 1017.7
20260502114145 75 282 4.0 14.0 0.00 0.00 0.00 61 1017.7
20260502113646 74 317 4.0 14.0 0.00 0.00 0.00 61 1017.8
20260502113145 75 222 4.0 14.0 0.00 0.00 0.00 61 1017.8
20260502112645 74 280 4.0 14.0 0.00 0.00 0.00 61 1017.9
20260502111643 73 174 5.0 16.0 0.00 0.00 0.00 64 1018.0
20260502111142 73 192 4.0 16.0 0.00 0.00 0.00 63 1018.0
20260502110643 74 223 2.0 7.0 0.00 0.00 0.00 62 1018.1
20260502110139 74 269 2.0 7.0 0.00 0.00 0.00 63 1018.0
20260502105638 73 273 4.0 11.0 0.00 0.00 0.00 63 1018.1
20260502105141 74 280 4.0 11.0 0.00 0.00 0.00 62 1018.1
20260502104638 74 264 2.0 5.0 0.00 0.00 0.00 63 1018.0
20260502104137 73 266 2.0 5.0 0.00 0.00 0.00 64 1018.1
20260502103639 73 275 2.0 11.0 0.00 0.00 0.00 63 1018.1
20260502103139 73 284 4.0 11.0 0.00 0.00 0.00 64 1018.2
20260502101637 73 293 2.0 7.0 0.00 0.00 0.00 63 1018.2
20260502101135 72 253 2.0 7.0 0.00 0.00 0.00 64 1018.3
20260502100130 71 206 4.0 12.0 0.00 0.00 0.00 65 1018.4
20260502090631 71 298 2.0 11.0 0.00 0.00 0.00 66 1018.6
20260502090118 71 172 2.0 7.0 0.00 0.00 0.00 68 1018.7
20260502080104 67 235 2.0 7.0 0.00 0.00 0.00 70 1018.9
20260502071045 64 188 2.0 7.0 0.00 0.00 0.00 69 1019.2
20260502070541 64 188 4.0 7.0 0.00 0.00 0.00 69 1019.2
20260502064532 62 197 0.0 7.0 0.00 0.00 0.00 69 1019.3
20260502064031 62 195 0.0 7.0 0.00 0.00 0.00 69 1019.4
20260502063029 61 195 0.0 0.0 0.00 0.00 0.00 70 1019.3
20260502061531 58 196 0.0 0.0 0.00 0.00 0.00 72 1019.2
20260502061032 57 196 0.0 0.0 0.00 0.00 0.00 72 1019.1
20260502060531 56 196 0.0 0.0 0.00 0.00 0.00 72 1019.2
20260502060033 56 196 0.0 0.0 0.00 0.00 0.00 71 1019.1
20260502055029 56 196 0.0 0.0 0.00 0.00 0.00 71 1019.1
20260502054529 56 196 0.0 0.0 0.00 0.00 0.00 71 1019.1
20260502054030 56 196 0.0 0.0 0.00 0.00 0.00 70 1019.1
20260502053532 56 196 0.0 0.0 0.00 0.00 0.00 70 1019.1
20260502053029 56 196 0.0 0.0 0.00 0.00 0.00 70 1019.0
20260502052030 56 196 0.0 0.0 0.00 0.00 0.00 69 1019.0
20260502051534 56 196 0.0 0.0 0.00 0.00 0.00 69 1019.0
20260502050531 56 196 0.0 0.0 0.00 0.00 0.00 69 1018.9
20260502050031 56 196 0.0 0.0 0.00 0.00 0.00 69 1019.0
20260502045530 56 196 0.0 0.0 0.00 0.00 0.00 69 1018.9
20260502045015 56 196 0.0 0.0 0.00 0.00 0.00 68 1018.9
20260502044514 56 196 0.0 0.0 0.00 0.00 0.00 68 1018.8
20260502044008 56 196 0.0 0.0 0.00 0.00 0.00 67 1018.7
20260502043503 56 196 0.0 0.0 0.00 0.00 0.00 67 1018.6
20260502043002 56 197 0.0 0.0 0.00 0.00 0.00 67 1018.6
20260502042503 56 197 0.0 0.0 0.00 0.00 0.00 67 1018.7
20260502042002 56 197 0.0 0.0 0.00 0.00 0.00 67 1018.8
20260502041502 56 197 0.0 0.0 0.00 0.00 0.00 67 1019.0
20260502041003 56 197 0.0 0.0 0.00 0.00 0.00 67 1018.8
20260502040503 56 197 0.0 0.0 0.00 0.00 0.00 68 1018.9
20260502034502 54 197 0.0 5.0 0.00 0.00 0.00 72 1019.0
20260502034001 54 197 0.0 5.0 0.00 0.00 0.00 73 1018.9
20260502033503 53 197 0.0 5.0 0.00 0.00 0.00 74 1018.9
20260502032502 53 196 0.0 2.0 0.00 0.00 0.00 75 1018.9
20260502031950 53 196 0.0 2.0 0.00 0.00 0.00 77 1019.0
20260502031448 52 196 0.0 2.0 0.00 0.00 0.00 77 1019.0
20260502030936 52 196 0.0 2.0 0.00 0.00 0.00 77 1018.9
20260502030431 52 196 0.0 2.0 0.00 0.00 0.00 77 1018.7
20260502025932 52 196 0.0 2.0 0.00 0.00 0.00 78 1018.8
20260502024934 52 196 0.0 2.0 0.00 0.00 0.00 78 1018.8
20260502024428 52 196 0.0 2.0 0.00 0.00 0.00 78 1018.9
20260502023929 51 196 0.0 2.0 0.00 0.00 0.00 78 1019.0
20260502022918 51 196 0.0 2.0 0.00 0.00 0.00 78 1018.9
20260502022414 51 196 0.0 0.0 0.00 0.00 0.00 77 1019.0
20260502021408 51 196 0.0 2.0 0.00 0.00 0.00 77 1019.1
20260502020906 51 196 0.0 0.0 0.00 0.00 0.00 77 1019.1
20260502015906 51 196 0.0 0.0 0.00 0.00 0.00 77 1019.2
20260502015402 51 196 0.0 0.0 0.00 0.00 0.00 75 1019.2
20260502014349 51 196 0.0 0.0 0.00 0.00 0.00 75 1019.2
20260502013345 51 196 0.0 2.0 0.00 0.00 0.00 77 1019.3
20260502012834 51 196 0.0 2.0 0.00 0.00 0.00 75 1019.4
20260502012331 51 196 0.0 2.0 0.00 0.00 0.00 75 1019.3
20260502010836 51 196 0.0 0.0 0.00 0.00 0.00 75 1019.6
20260502010332 51 196 0.0 0.0 0.00 0.00 0.00 75 1019.6
20260502005830 51 196 0.0 2.0 0.00 0.00 0.00 75 1019.7
20260502005329 51 196 0.0 2.0 0.00 0.00 0.00 75 1019.8
20260502004305 51 196 0.0 0.0 0.00 0.00 0.00 75 1019.7
20260502003804 51 196 0.0 0.0 0.00 0.00 0.00 75 1019.8
20260502003304 51 196 0.0 0.0 0.00 0.00 0.00 75 1019.8
20260502002805 51 196 0.0 0.0 0.00 0.00 0.00 74 1019.8
20260502002306 51 196 0.0 2.0 0.00 0.00 0.00 74 1019.9
20260502001804 51 196 0.0 2.0 0.00 0.00 0.00 74 1019.8
20260502001308 51 196 0.0 0.0 0.00 0.00 0.00 74 1019.8
20260502000803 51 196 0.0 0.0 0.00 0.00 0.00 74 1019.7
20260502000305 52 196 0.0 5.0 0.00 0.00 0.00 74 1019.9
20260501235804 52 196 0.0 5.0 0.00 0.00 0.00 73 1020.0
20260501235307 52 196 0.0 0.0 0.00 0.00 0.00 72 1019.9
20260501234803 52 196 0.0 0.0 0.00 0.00 0.00 72 1020.1
20260501234253 52 196 0.0 0.0 0.00 0.00 0.00 71 1020.1
20260501233752 52 196 0.0 0.0 0.00 0.00 0.00 72 1020.1
20260501233239 52 196 0.0 0.0 0.00 0.00 0.00 71 1020.1
20260501232730 52 196 0.0 0.0 0.00 0.00 0.00 71 1020.2
20260501232232 52 196 0.0 0.0 0.00 0.00 0.00 70 1020.2
20260501231737 53 196 0.0 0.0 0.00 0.00 0.00 70 1020.3
20260501231237 53 196 0.0 0.0 0.00 0.00 0.00 70 1020.3
20260501230732 53 196 0.0 0.0 0.00 0.00 0.00 70 1020.4
20260501230234 53 196 0.0 0.0 0.00 0.00 0.00 69 1020.6
20260501225732 54 196 0.0 0.0 0.00 0.00 0.00 70 1020.6
20260501224735 54 196 0.0 0.0 0.00 0.00 0.00 69 1020.7
20260501224231 54 196 0.0 0.0 0.00 0.00 0.00 68 1020.6
20260501223734 54 196 0.0 0.0 0.00 0.00 0.00 68 1020.7
20260501223207 54 196 0.0 0.0 0.00 0.00 0.00 68 1020.7
20260501222206 55 196 0.0 0.0 0.00 0.00 0.00 67 1020.8
20260501221704 55 196 0.0 0.0 0.00 0.00 0.00 66 1020.7
20260501221207 55 196 0.0 0.0 0.00 0.00 0.00 65 1020.8
20260501220709 55 196 0.0 0.0 0.00 0.00 0.00 65 1020.8
20260501220204 56 196 0.0 0.0 0.00 0.00 0.00 64 1020.7
20260501215704 56 196 0.0 0.0 0.00 0.00 0.00 64 1020.6
20260501215205 56 196 0.0 0.0 0.00 0.00 0.00 64 1020.6
20260501214708 56 196 0.0 2.0 0.00 0.00 0.00 63 1020.7
20260501214205 56 196 0.0 2.0 0.00 0.00 0.00 63 1020.7
20260501213147 57 196 0.0 0.0 0.00 0.00 0.00 61 1020.7
20260501212647 57 196 0.0 0.0 0.00 0.00 0.00 61 1020.7
20260501212141 57 196 0.0 0.0 0.00 0.00 0.00 61 1020.6
20260501210637 58 196 0.0 0.0 0.00 0.00 0.00 59 1020.4
20260501210135 58 196 0.0 0.0 0.00 0.00 0.00 59 1020.5
20260501205634 59 196 0.0 0.0 0.00 0.00 0.00 58 1020.6
20260501205135 59 196 0.0 0.0 0.00 0.00 0.00 57 1020.5
20260501204634 59 196 0.0 0.0 0.00 0.00 0.00 56 1020.6
20260501204135 59 196 0.0 0.0 0.00 0.00 0.00 56 1020.5
20260501203632 60 196 0.0 0.0 0.00 0.00 0.00 56 1020.6
20260501203132 60 196 0.0 0.0 0.00 0.00 0.00 55 1020.6
20260501202631 60 196 0.0 0.0 0.00 0.00 0.00 55 1020.7
20260501202135 60 196 0.0 0.0 0.00 0.00 0.00 55 1020.6
20260501201634 61 196 0.0 0.0 0.00 0.00 0.00 53 1020.6
20260501201133 61 196 0.0 0.0 0.00 0.00 0.00 51 1020.5
20260501200632 62 196 0.0 0.0 0.00 0.00 0.00 51 1020.5
20260501200132 62 196 0.0 0.0 0.00 0.00 0.00 50 1020.6
20260501195632 62 196 0.0 0.0 0.00 0.00 0.00 49 1020.6
20260501195134 63 196 0.0 0.0 0.00 0.00 0.00 49 1020.6
20260501194128 64 196 0.0 0.0 0.00 0.00 0.00 48 1020.4
20260501193621 65 196 0.0 0.0 0.00 0.00 0.00 48 1020.3
20260501193108 65 196 0.0 0.0 0.00 0.00 0.00 48 1020.8
20260501192604 66 196 0.0 0.0 0.00 0.00 0.00 49 1020.2
20260501192106 67 196 0.0 0.0 0.00 0.00 0.00 47 1020.2
20260501191608 67 196 0.0 0.0 0.00 0.00 0.00 46 1020.2
20260501191104 68 196 0.0 0.0 0.00 0.00 0.00 45 1020.2
20260501190603 69 196 0.0 0.0 0.00 0.00 0.00 43 1020.2
20260501190105 69 196 0.0 0.0 0.00 0.00 0.00 42 1020.2
20260501185605 70 196 0.0 0.0 0.00 0.00 0.00 41 1020.2
20260501185104 71 196 0.0 0.0 0.00 0.00 0.00 39 1020.1
20260501184604 71 196 0.0 0.0 0.00 0.00 0.00 37 1020.0
20260501184107 72 196 0.0 0.0 0.00 0.00 0.00 36 1020.0
20260501183607 72 196 0.0 0.0 0.00 0.00 0.00 34 1020.0
20260501183103 73 196 0.0 0.0 0.00 0.00 0.00 34 1020.0
20260501182603 73 196 0.0 0.0 0.00 0.00 0.00 32 1020.0